Theta_e
353 354 355 358 370 364 361 365 360 362 359 354 349 351 352 355 356 365 348 349 346 347 347 351 351 353 353 353 352 347 347 350 351 348 353 353 352 350 350 346 347 351 353 349 350 352 352 352 352
355 355 357 362 369 361 362 360 364 359 357 352 353 352 353 359 352 349 349 346 346 347 347 350 352 352 353 351 353 353 352 353 347 348 348 351 352 352 352 351 346 347 353 352 347 348 351 350 351
357 357 365 363 357 363 363 359 362 357 352 351 355 353 356 356 349 348 348 342 344 347 346 352 352 348 350 353 352 354 353 352 348 348 347 347 348 347 349 353 347 354 353 354 353 351 352 353 352
353 359 363 363 358 358 358 359 358 358 354 352 353 358 350 348 346 347 346 341 345 346 344 350 352 351 352 352 352 353 350 346 349 348 350 349 352 346 352 352 353 354 354 353 353 352 354 353 352
357 359 361 357 358 357 357 356 356 358 357 355 353 356 352 346 346 348 341 340 344 343 343 349 353 351 353 351 353 354 348 353 351 350 350 354 353 352 352 352 353 353 353 353 352 353 353 350 352
359 357 354 354 357 357 357 356 355 355 356 355 355 357 352 345 347 346 342 339 341 341 341 346 352 352 351 353 353 353 346 353 353 348 350 353 351 353 353 354 353 353 354 352 352 351 351 348 349
361 363 352 351 356 358 359 354 355 355 355 356 353 358 352 344 348 346 344 340 338 340 341 344 351 354 351 352 352 353 352 353 352 348 349 351 352 350 353 350 353 353 351 352 351 351 349 351 347
355 360 356 353 353 359 356 355 353 354 355 350 350 357 356 346 346 336 340 341 339 342 343 344 347 352 348 348 353 351 352 352 352 352 353 350 349 349 351 350 352 353 351 352 351 348 345 346 346
352 363 356 353 353 355 354 356 353 352 353 351 350 351 349 345 344 342 338 342 344 344 343 342 345 352 348 348 351 350 348 351 349 347 349 351 351 352 350 350 349 352 351 349 348 342 342 342 344
356 355 356 353 352 353 353 354 355 356 355 354 352 349 347 344 345 340 339 344 340 341 343 340 341 349 348 348 350 351 350 346 349 351 352 349 352 352 350 350 353 352 351 348 348 342 340 346 349
350 353 353 351 352 353 352 354 354 355 357 355 356 352 348 345 344 340 339 344 341 340 337 338 343 350 348 348 349 349 350 347 347 350 352 350 350 350 350 351 351 351 347 348 348 348 346 349 348
353 351 349 350 352 352 353 352 355 354 357 351 352 350 347 346 344 341 341 335 343 342 338 338 341 349 349 349 348 348 349 347 347 348 351 345 348 350 351 351 347 349 347 349 350 348 347 347 349
353 352 350 349 349 352 352 354 356 356 351 349 351 349 348 344 341 340 340 338 344 347 343 341 343 348 348 350 347 349 349 347 347 349 350 351 350 351 350 349 351 349 349 348 348 347 349 350 347
352 351 351 351 351 352 355 356 354 355 351 353 352 349 347 345 340 338 337 337 340 346 344 341 342 346 350 350 351 350 348 347 347 348 350 351 349 351 347 344 348 349 348 345 347 346 349 348 349
351 349 346 348 350 353 352 357 360 354 352 354 352 350 348 346 345 345 344 346 347 347 347 344 344 347 351 350 351 349 348 348 350 349 350 352 352 350 349 346 346 349 346 350 349 349 349 349 345
343 344 340 346 349 352 351 362 358 353 354 354 352 351 350 350 349 349 348 346 345 344 346 347 347 348 347 348 349 349 349 352 352 351 352 354 349 349 350 348 346 350 347 348 347 347 348 349 346
340 336 336 340 348 351 352 360 358 353 354 354 352 352 351 352 350 348 346 344 340 342 342 343 347 346 347 348 348 349 351 353 354 353 354 354 352 352 351 347 347 346 348 349 349 345 350 349 348
337 335 333 334 344 348 352 357 357 354 353 355 354 354 354 352 351 349 346 341 337 339 339 343 346 347 348 346 348 347 349 352 353 354 354 355 354 352 352 347 352 349 347 350 348 347 349 349 347
333 333 331 333 342 346 349 357 358 355 353 354 354 354 353 352 349 346 344 341 339 340 339 340 345 348 350 349 348 348 350 351 352 353 355 356 356 352 351 350 350 352 352 350 349 349 349 346 348
329 330 330 338 348 349 352 352 355 355 353 353 352 354 352 351 350 347 344 342 341 341 341 342 345 348 352 351 350 351 351 352 353 351 353 355 356 354 353 352 347 345 353 349 351 349 348 347 348
328 328 329 331 339 348 344 361 358 354 353 350 350 350 350 350 350 349 345 342 342 342 342 344 346 348 352 352 352 352 354 355 354 354 353 353 355 356 351 350 353 349 347 352 353 352 351 348 350
327 327 327 332 335 338 339 347 354 357 356 353 350 350 349 349 348 348 348 346 344 343 344 345 346 347 350 353 351 353 353 352 352 353 352 352 354 354 353 352 352 352 352 351 353 352 352 350 349
328 331 335 338 337 337 336 341 346 354 358 355 352 349 349 348 348 348 347 346 346 345 345 345 346 348 350 351 353 353 353 351 352 352 355 357 354 355 354 354 351 353 349 354 351 352 352 350 350
327 330 334 335 336 335 334 340 342 345 346 354 353 351 348 348 348 347 345 345 345 344 345 344 345 348 350 351 353 353 352 352 351 352 354 354 354 352 353 355 353 353 350 353 348 351 353 349 351
328 330 332 333 334 337 337 343 343 346 344 348 352 352 351 349 347 348 347 345 344 344 344 343 344 346 349 350 351 353 353 352 351 353 352 351 352 352 348 355 355 349 349 349 348 348 350 352 351
331 331 331 334 333 337 340 340 344 348 346 344 348 347 348 349 349 348 348 346 345 344 343 343 344 346 347 349 350 352 353 352 351 350 351 347 352 351 349 352 355 355 352 348 348 347 350 351 352
332 332 330 330 331 333 336 341 348 345 351 349 350 351 350 350 350 350 350 347 347 345 344 343 343 345 346 346 348 349 349 350 346 347 349 349 351 352 351 355 354 354 353 349 346 340 344 352 352
331 329 330 330 332 334 336 337 349 349 349 346 345 347 350 349 351 352 348 348 347 346 345 344 344 344 345 343 344 347 347 349 350 351 351 352 353 355 352 355 355 354 354 352 349 345 345 352 351
332 332 331 331 331 332 335 337 344 349 346 345 346 349 350 350 352 354 352 349 347 346 346 346 346 346 346 346 344 346 349 350 352 353 354 355 355 356 357 355 355 356 354 353 353 349 349 351 349
330 332 332 333 335 332 332 342 341 348 349 350 349 349 353 353 353 354 353 351 350 349 349 348 347 348 349 348 349 348 351 352 352 354 354 354 356 357 358 357 356 356 355 354 353 350 347 349 348
Wind_Speed
9 8 5 5 4 4 3 4 5 10 8 3 9 2 8 10 2 3 17 15 25 24 20 17 17 17 15 15 14 13 12 11 9 9 7 7 7 8 8 8 10 12 14 15 16 17 18 17 17
9 7 6 3 4 3 5 7 7 8 6 9 8 3 6 6 9 12 17 23 26 24 22 18 18 17 16 15 13 13 12 9 8 8 6 8 7 8 10 10 12 14 14 15 16 18 18 17 17
7 5 4 2 4 9 8 9 12 10 9 6 5 6 5 4 6 19 19 26 24 23 21 18 19 17 16 15 12 12 11 10 9 8 8 7 6 7 15 14 15 14 15 15 16 17 18 17 16
4 4 4 2 11 10 11 10 17 12 4 1 5 6 6 3 11 9 26 25 24 22 20 19 18 16 15 14 12 11 10 10 9 8 9 11 11 15 17 16 15 14 15 15 14 15 16 16 15
4 4 4 6 10 9 9 12 14 10 10 11 10 6 3 4 7 22 23 23 24 22 20 19 17 16 15 14 12 10 11 10 9 10 11 12 14 15 15 16 15 15 14 14 15 14 14 14 13
4 3 3 9 10 8 8 9 10 9 9 13 8 11 6 10 20 26 22 18 22 22 22 20 16 16 14 12 11 10 10 9 9 10 11 12 13 14 14 14 15 14 14 14 13 13 11 10 11
4 5 7 7 9 8 7 9 6 9 9 11 8 9 7 15 22 24 24 19 21 21 21 20 16 14 13 11 10 9 9 8 9 9 10 11 12 12 12 13 13 13 13 12 12 12 10 9 12
5 3 3 2 5 8 7 9 6 6 8 12 10 6 9 23 29 28 23 21 19 18 19 18 17 15 13 10 9 7 6 8 7 7 8 10 10 11 9 11 11 11 11 10 10 10 8 8 11
3 5 3 6 2 6 9 8 7 5 11 6 9 2 17 31 32 29 26 22 20 18 18 19 18 14 13 11 8 5 5 5 6 5 6 7 8 8 8 8 10 11 9 9 8 6 6 7 8
5 4 5 5 6 5 8 8 11 8 12 8 8 8 28 35 34 31 27 24 25 23 20 19 17 15 14 11 8 6 5 4 4 4 6 5 6 7 7 8 10 10 9 8 6 4 5 4 6
2 4 3 3 4 4 0 5 8 5 9 11 13 20 25 33 31 30 27 25 23 24 21 20 17 15 14 11 9 7 6 5 5 5 4 5 6 6 7 7 9 7 7 6 5 3 3 1 4
1 2 2 2 0 1 1 2 2 2 6 4 14 22 26 26 26 28 22 26 21 18 20 18 17 14 13 10 9 7 6 6 5 6 6 7 5 7 7 6 8 8 7 5 4 3 2 3 6
4 3 3 1 2 3 2 5 5 4 3 7 16 21 24 23 26 23 23 20 20 15 17 17 16 15 12 10 8 7 6 6 6 6 6 7 7 7 8 8 7 9 7 6 5 5 4 3 7
10 8 8 5 7 3 5 9 3 7 6 13 17 20 20 21 23 25 24 25 22 18 17 17 16 14 13 10 9 8 7 7 7 7 6 8 8 8 9 11 9 8 8 8 6 6 5 4 5
6 4 3 4 7 4 11 7 7 8 9 12 15 16 17 19 22 20 20 19 19 20 14 14 14 13 13 12 10 9 8 8 7 7 8 9 8 5 6 9 10 8 9 7 7 7 6 6 5
4 6 5 7 6 5 8 6 7 8 11 11 13 14 16 18 23 17 20 21 22 21 18 14 13 13 13 13 11 10 9 8 7 7 7 7 6 6 6 7 9 9 9 8 8 9 7 6 8
3 9 8 5 4 3 6 8 10 10 12 14 13 13 14 17 21 25 24 22 26 23 21 18 13 14 15 14 12 11 9 8 7 8 8 7 8 6 7 7 9 11 10 10 10 11 8 8 6
17 15 13 7 5 5 5 8 12 12 12 14 14 15 15 16 18 25 27 29 34 23 22 15 14 15 14 12 13 12 11 12 11 10 9 8 7 8 9 8 6 8 12 12 12 11 11 8 8
15 13 11 7 5 4 4 9 14 15 13 15 15 16 18 18 19 23 26 28 29 26 25 20 17 15 16 15 15 14 15 13 13 12 9 7 6 8 6 6 7 7 7 11 12 12 11 11 10
9 9 6 7 4 6 2 5 10 14 13 14 16 16 17 18 19 22 27 31 30 27 25 22 21 19 17 16 15 14 13 14 12 11 10 9 8 7 8 9 9 6 7 8 12 14 10 13 11
8 6 10 9 2 4 5 8 9 11 11 12 14 16 17 20 21 22 28 32 32 31 30 27 24 22 19 18 16 13 12 10 10 12 11 12 12 11 9 9 10 9 9 8 12 13 14 11 11
13 7 5 7 8 3 7 6 9 12 15 15 15 16 18 21 22 22 27 32 35 34 31 28 25 24 22 19 18 17 15 15 13 12 10 11 12 12 11 11 12 13 13 11 11 12 14 12 12
6 4 5 5 5 5 5 3 8 11 12 15 18 19 20 22 23 24 27 33 34 32 30 28 27 25 24 22 22 19 19 16 14 12 10 12 12 13 13 13 13 14 15 12 11 11 15 15 12
2 3 3 3 3 3 4 7 10 5 4 14 17 19 19 19 21 21 27 29 30 30 29 27 26 27 26 25 22 23 21 18 16 14 14 13 13 13 14 15 15 16 16 11 11 13 15 17 14
8 13 5 5 5 9 4 4 9 8 8 5 14 16 17 17 17 18 20 25 27 27 29 29 28 27 27 27 26 26 26 23 22 20 17 16 14 13 13 14 15 16 14 12 10 10 14 14 15
4 10 5 3 1 10 2 3 6 5 6 8 8 8 9 11 12 14 16 23 25 27 29 28 27 27 26 26 28 26 24 24 24 22 24 20 18 16 13 15 15 13 13 14 16 12 11 15 16
4 8 9 5 3 7 6 6 9 9 12 11 11 10 11 7 4 6 12 18 22 25 27 28 26 25 25 26 23 24 24 26 26 23 20 22 21 18 16 17 16 16 16 18 18 16 12 15 19
6 4 6 6 3 5 9 4 11 14 13 10 11 11 11 9 9 9 6 6 10 16 20 23 23 24 22 22 23 23 24 24 23 22 22 22 20 20 17 16 15 14 16 18 23 23 20 18 19
4 8 3 4 4 6 8 5 12 13 11 11 11 10 10 10 10 10 10 12 12 10 11 15 18 19 21 22 23 23 21 21 20 21 22 22 21 19 18 17 16 16 18 21 23 21 20 19 20
2 5 10 8 7 1 9 8 8 6 8 7 8 9 10 9 10 11 13 16 14 11 9 9 10 12 15 16 18 19 19 20 20 21 21 20 20 19 20 18 17 17 17 19 23 23 22 22 22
Wind_Direction
168 179 195 215 236 242 67 80 86 120 129 96 112 154 130 15 35 64 140 148 150 149 150 143 140 135 133 132 133 137 126 120 117 107 121 126 133 141 146 132 115 108 105 106 113 116 114 114 113
173 180 227 243 275 114 82 113 116 81 93 129 103 72 160 83 55 116 136 151 152 149 150 147 144 139 135 135 132 128 121 116 111 106 110 124 141 145 140 129 120 112 109 109 111 112 108 109 110
172 237 261 271 358 43 70 86 118 110 121 155 124 40 19 67 102 140 142 148 151 150 151 147 141 141 134 134 132 128 118 112 104 102 104 113 114 145 139 125 120 112 110 109 109 109 112 111 111
197 216 234 272 66 59 79 117 128 135 109 93 119 83 89 351 125 145 145 150 150 151 151 155 144 140 137 137 133 130 118 110 108 106 108 98 94 112 123 120 115 115 110 107 107 109 113 109 106
235 242 195 85 79 74 85 132 154 157 156 169 183 120 80 102 114 140 145 155 152 153 151 154 148 147 139 137 135 126 119 109 109 108 110 109 106 112 116 115 115 112 109 107 108 110 115 113 110
249 263 173 85 87 98 107 132 140 137 146 155 178 137 126 137 142 142 152 165 158 153 153 157 153 149 143 139 137 126 118 109 105 110 113 115 113 117 116 114 117 113 109 107 107 108 111 121 122
285 272 76 102 106 100 133 153 142 140 147 164 147 148 119 149 160 153 157 169 162 157 154 158 159 152 149 146 141 133 128 118 108 111 115 117 121 122 117 116 113 115 114 113 112 109 105 113 133
281 265 218 56 82 93 140 165 152 148 137 129 166 172 169 165 158 158 165 165 169 160 159 158 163 163 161 154 155 144 131 126 117 114 116 128 121 125 131 128 125 122 121 122 119 118 111 111 135
279 246 88 66 54 117 155 165 142 114 142 164 179 189 139 156 160 162 169 165 167 171 173 168 166 167 166 160 170 155 143 144 129 118 128 111 139 139 135 137 136 127 129 128 124 121 120 111 121
251 288 42 28 45 61 159 174 152 161 162 155 162 121 142 157 168 169 171 171 175 173 176 176 170 173 171 168 170 180 166 168 159 159 152 147 145 147 152 153 137 137 136 138 134 137 121 109 142
12 1 13 8 347 341 207 192 169 186 190 172 167 150 158 163 169 171 183 175 176 175 181 176 172 176 176 174 182 189 189 192 199 195 173 169 168 157 159 157 161 145 134 154 143 121 147 143 173
218 27 291 320 54 260 271 113 206 224 30 14 156 161 163 169 171 171 181 176 177 187 180 174 177 179 184 184 195 198 205 209 220 211 217 196 181 176 166 164 176 165 158 171 165 167 143 118 167
298 9 269 242 321 325 208 168 97 72 16 151 148 161 167 172 168 171 173 180 179 201 178 182 183 180 188 198 205 212 216 223 231 227 217 214 215 189 177 178 171 173 179 188 184 176 162 127 141
325 310 287 243 234 187 137 128 218 69 97 127 152 162 168 171 174 173 177 186 184 192 187 188 190 186 192 203 209 214 226 231 236 233 217 216 217 203 200 190 188 186 194 188 194 186 176 162 147
310 314 99 197 201 152 128 120 80 108 130 135 150 163 167 157 187 178 177 178 179 186 182 194 190 196 198 210 215 222 230 227 232 230 222 225 232 212 196 185 198 204 184 186 196 189 180 183 185
309 221 32 110 171 151 235 104 132 143 132 138 156 167 177 175 183 180 172 185 189 188 187 198 201 201 208 214 217 220 221 221 219 223 222 227 228 238 214 193 203 205 195 197 209 193 199 192 174
99 353 20 84 200 163 243 120 153 161 145 148 167 171 188 179 179 184 185 193 195 195 190 198 198 207 211 213 218 220 225 233 229 235 242 240 234 229 224 224 202 208 196 197 200 203 208 191 205
328 337 344 12 122 225 182 125 159 172 163 159 168 181 186 186 181 185 189 187 189 191 190 188 199 209 208 208 212 220 228 235 235 242 245 245 242 232 225 227 205 205 209 209 200 206 208 221 204
312 310 319 30 119 242 197 154 175 177 175 163 174 179 180 188 177 180 189 188 192 197 194 207 207 206 201 203 206 212 222 228 234 238 237 236 250 245 239 213 204 203 225 213 202 205 211 218 200
313 303 357 106 114 199 164 142 166 183 188 179 175 185 182 185 181 184 189 195 199 199 206 210 216 215 212 212 216 221 227 232 233 234 233 234 246 248 230 222 218 264 233 210 206 203 203 223 197
279 315 347 342 316 205 230 131 159 196 203 190 189 186 191 191 191 191 193 197 203 208 210 215 217 217 219 222 218 218 227 233 231 235 236 238 239 242 240 237 244 243 265 232 213 209 210 206 203
296 14 315 306 297 21 341 112 136 169 194 196 196 194 196 200 203 196 201 205 209 213 216 219 218 216 217 218 221 219 224 231 236 238 239 235 235 239 241 235 233 242 236 232 226 217 212 217 208
9 10 328 309 267 255 108 261 102 151 180 195 203 200 205 203 206 207 207 210 214 213 213 216 217 217 216 215 217 222 230 240 245 243 239 232 237 235 231 237 238 237 239 231 224 222 213 205 209
270 241 244 228 260 186 54 289 97 95 125 179 194 208 209 208 208 214 214 215 216 216 214 213 213 215 212 214 218 221 231 237 246 238 237 240 241 236 230 226 232 239 244 230 219 225 224 217 210
233 253 234 205 195 55 79 234 54 84 106 110 174 198 207 214 210 213 219 214 216 215 213 215 211 213 213 215 217 223 230 233 239 240 244 251 240 233 231 229 231 235 244 240 231 230 237 222 223
321 321 317 277 343 109 163 119 86 76 104 126 117 137 172 196 212 218 217 221 217 209 214 212 213 210 213 215 221 226 231 235 240 242 237 241 237 231 227 222 226 236 223 222 215 209 239 235 226
118 241 18 292 182 262 95 113 131 128 120 116 117 119 104 99 135 197 210 210 215 210 208 210 211 210 211 218 224 231 234 236 241 243 244 243 236 231 217 213 217 218 213 214 214 196 223 238 228
302 359 237 204 269 287 133 214 113 140 130 128 104 100 94 90 74 71 69 136 177 199 202 206 210 214 216 217 221 231 235 239 244 242 239 239 239 235 223 215 217 216 212 207 209 213 209 209 223
243 218 222 317 311 304 240 144 116 146 136 120 120 112 91 84 81 84 90 101 116 136 168 191 203 211 218 220 225 229 234 236 238 240 239 239 236 231 233 221 215 212 210 209 208 215 212 214 212
318 315 272 280 166 303 311 92 129 131 133 121 115 109 93 83 89 94 96 101 109 119 141 163 184 205 219 225 227 231 239 240 237 238 239 232 231 229 230 229 226 219 214 213 213 216 219 214 212